Sigfox identifier Datetime Temperature Humidity SNR
003BEBDD 2019-02-20 13:54:10 20.9 21 24.4
003BEBDD 2019-02-20 13:22:04 20.9 23 24.5
003BEBDD 2019-02-20 12:49:59 20.9 24 23.9
003BEBDD 2019-02-20 12:17:53 20.9 25 24
003BEBDD 2019-02-20 11:45:53 20.8 25 24
003BEBDD 2019-02-20 11:13:44 20.8 26 23.4
003BEBDD 2019-02-20 10:41:38 20.8 27 23.3
003BEBDD 2019-02-20 10:09:32 20.8 27 22.6
003BEBDD 2019-02-20 09:37:27 20.7 27 22.7
003BEBDD 2019-02-20 09:05:23 20.7 27 21.8
003BEBDD 2019-02-20 08:33:16 20.7 27 20.7
003BEBDD 2019-02-20 08:01:11 20.7 27 20.6
003BEBDD 2019-02-20 07:29:06 20.7 27 20.4
003BEBDD 2019-02-20 06:56:59 20.7 27 20.5
003BEBDD 2019-02-20 06:24:55 20.7 27 20.5
003BEBDD 2019-02-20 05:52:50 20.7 27 20.4
003BEBDD 2019-02-20 05:20:44 20.7 27 20
003BEBDD 2019-02-20 04:48:35 20.7 27 20
003BEBDD 2019-02-20 04:16:29 20.7 27 19.9
003BEBDD 2019-02-20 03:44:24 20.7 27 21.2
003BEBDD 2019-02-20 03:12:17 20.8 27 21.2
003BEBDD 2019-02-20 02:40:11 20.7 27 21.1
003BEBDD 2019-02-20 02:08:05 20.7 27 21
003BEBDD 2019-02-20 01:35:58 20.8 27 20.9
003BEBDD 2019-02-20 01:03:51 20.8 27 22
003BEBDD 2019-02-20 00:31:44 20.8 27 21.9
003BEBDD 2019-02-19 23:59:37 20.8 27 21.7
003BEBDD 2019-02-19 23:27:30 20.8 27 21.5
003BEBDD 2019-02-19 22:55:24 20.8 27 21.5
003BEBDD 2019-02-19 22:23:17 20.8 27 21.5
003BEBDD 2019-02-19 21:51:11 20.8 27 21.3
003BEBDD 2019-02-19 21:19:05 20.9 27 21.3
003BEBDD 2019-02-19 20:47:01 20.9 27 21.1
003BEBDD 2019-02-19 20:14:55 20.9 27 21.1
003BEBDD 2019-02-19 19:42:47 20.9 27 20.9
003BEBDD 2019-02-19 19:10:41 20.9 27 20.7
003BEBDD 2019-02-19 18:38:35 21 27 20.6
003BEBDD 2019-02-19 18:06:28 21.1 27 20.5
003BEBDD 2019-02-19 17:34:23 21.1 27 20.4
003BEBDD 2019-02-19 17:02:18 21.1 28 20.2
003BEBDD 2019-02-19 16:30:12 21.1 28 20.2
003BEBDD 2019-02-19 15:58:06 21.1 28 20.2
003BEBDD 2019-02-19 15:26:00 21.1 28 20.2
003BEBDD 2019-02-19 14:53:57 21.1 28 20.2
003BEBDD 2019-02-19 13:49:44 21.1 28 18.3
003BEBDD 2019-02-19 13:17:39 21 27 18.2
003BEBDD 2019-02-19 12:45:34 21 27 18.2
003BEBDD 2019-02-19 12:13:29 21 27 18.4
003BEBDD 2019-02-19 11:08:37 21 27 18.5
003BEBDD 2019-02-19 10:36:33 20.9 27 14.8
003BEBDD 2019-02-19 10:04:27 20.9 27 14.7
003BEBDD 2019-02-19 09:32:18 20.8 26 14.7
003BEBDD 2019-02-19 09:00:11 20.8 26 14.5
003BEBDD 2019-02-19 08:28:09 20.7 26 14.3
003BEBDD 2019-02-19 07:56:02 20.8 25 14.6
003BEBDD 2019-02-19 07:23:53 20.7 25 14.4
003BEBDD 2019-02-19 06:51:51 20.7 25 18.1
003BEBDD 2019-02-19 04:43:23 20.7 25 18.3
003BEBDD 2019-02-19 04:11:16 20.7 25 18.2
003BEBDD 2019-02-19 03:39:10 20.8 24 18.2
003BEBDD 2019-02-19 03:07:08 20.8 24 18.4
003BEBDD 2019-02-19 02:34:57 20.7 24 18.5
003BEBDD 2019-02-19 02:02:50 20.8 24 18.7
003BEBDD 2019-02-19 00:58:37 20.8 24 18.8
003BEBDD 2019-02-19 00:26:32 20.8 24 19.2
003BEBDD 2019-02-18 23:54:26 20.8 24 19.5
003BEBDD 2019-02-18 23:22:22 20.8 23 19.7
003BEBDD 2019-02-18 22:50:14 20.8 23 19.9
003BEBDD 2019-02-18 22:18:08 20.8 23 19.9
003BEBDD 2019-02-18 21:46:05 20.8 23 20.2
003BEBDD 2019-02-18 21:13:55 20.8 23 20.4
003BEBDD 2019-02-18 20:41:49 20.8 23 20.8
003BEBDD 2019-02-18 20:09:44 20.8 22 20.8
003BEBDD 2019-02-18 19:37:38 20.9 22 21
003BEBDD 2019-02-18 19:05:33 20.9 22 21.2
003BEBDD 2019-02-18 18:33:29 20.9 22 21.9
003BEBDD 2019-02-18 18:01:20 21 22 22.1
003BEBDD 2019-02-18 16:57:12 21 22 22.3
003BEBDD 2019-02-18 16:25:04 21.1 22 22.4
003BEBDD 2019-02-18 15:53:00 21.1 22 22.6
003BEBDD 2019-02-18 15:20:52 21.2 21 21.8
003BEBDD 2019-02-18 14:48:47 21.2 21 22.1
003BEBDD 2019-02-18 14:16:41 21.3 21 22.3
003BEBDD 2019-02-18 13:44:35 21.3 20 22.4
003BEBDD 2019-02-18 13:12:29 21.4 20 22.5
003BEBDD 2019-02-18 12:40:22 21.5 20 22.7
003BEBDD 2019-02-18 12:08:16 21.5 20 22.8
003BEBDD 2019-02-18 11:36:12 21.5 19 22.9
003BEBDD 2019-02-18 11:04:07 21.4 19 22.9
003BEBDD 2019-02-18 10:32:03 21.3 19 22.9
003BEBDD 2019-02-18 09:59:59 21.3 19 22.9
003BEBDD 2019-02-18 09:27:54 21.2 19 22.9
003BEBDD 2019-02-18 08:55:49 21.2 19 23
003BEBDD 2019-02-18 08:23:03 21.1 19 23
003BEBDD 2019-02-18 07:50:59 21.1 18 23.2
003BEBDD 2019-02-18 07:18:54 21 18 23.1
003BEBDD 2019-02-18 06:46:48 21 18 23.2
003BEBDD 2019-02-18 06:14:41 21 18 23.3
003BEBDD 2019-02-18 05:42:35 21 18 23.4
003BEBDD 2019-02-18 05:10:29 21 18 23.3
003BEBDD 2019-02-18 04:38:23 21 18 23.2
003BEBDD 2019-02-18 04:06:18 21 19 23.3
003BEBDD 2019-02-18 03:34:13 21 19 23.3
003BEBDD 2019-02-18 03:02:06 21 18 23.3
003BEBDD 2019-02-18 02:30:00 21 19 23.3
003BEBDD 2019-02-18 01:57:54 21.1 19 23.2
003BEBDD 2019-02-18 01:25:49 21.1 19 23.2
003BEBDD 2019-02-18 00:53:43 21.1 19 23.3
003BEBDD 2019-02-18 00:21:37 21.1 19 23.3
003BEBDD 2019-02-17 23:49:31 21.1 19 23.3
003BEBDD 2019-02-17 23:17:23 21.1 19 23.2
003BEBDD 2019-02-17 22:45:17 21.1 19 23.3
003BEBDD 2019-02-17 22:13:11 21.1 19 23.3
003BEBDD 2019-02-17 21:41:03 21.1 19 23.2
003BEBDD 2019-02-17 21:08:57 21.1 20 23.2
003BEBDD 2019-02-17 20:36:51 21.1 20 23.1
003BEBDD 2019-02-17 20:04:46 21.2 20 23.2
003BEBDD 2019-02-17 19:32:41 21.2 20 23.2
003BEBDD 2019-02-17 19:00:35 21.2 20 23.2
003BEBDD 2019-02-17 18:28:28 21.2 20 23.1
003BEBDD 2019-02-17 17:56:24 21.2 20 23.1
003BEBDD 2019-02-17 17:24:19 21.2 20 23.1
003BEBDD 2019-02-17 16:52:13 21.2 20 23.1
003BEBDD 2019-02-17 16:20:07 21.2 19 23
003BEBDD 2019-02-17 15:48:02 21.2 20 23
003BEBDD 2019-02-17 15:15:56 21.2 20 23
003BEBDD 2019-02-17 14:43:50 21.2 20 22.9
003BEBDD 2019-02-17 14:11:44 21.3 20 22.9
003BEBDD 2019-02-17 13:39:37 21.3 20 23.6
003BEBDD 2019-02-17 13:07:31 21.3 20 23.6
003BEBDD 2019-02-17 12:35:25 21.3 21 23.7
003BEBDD 2019-02-17 12:03:18 21.2 21 23.6
003BEBDD 2019-02-17 11:31:13 21.2 21 23.5
003BEBDD 2019-02-17 10:59:09 21.2 21 23.5
003BEBDD 2019-02-17 10:27:04 21.1 21 23.6
003BEBDD 2019-02-17 09:55:00 21.1 21 23.7
003BEBDD 2019-02-17 09:22:56 21.1 21 23.6
003BEBDD 2019-02-17 08:50:51 21.1 21 23.8
003BEBDD 2019-02-17 08:18:45 21.2 21 23.9
003BEBDD 2019-02-17 07:46:39 21.2 21 23.9
003BEBDD 2019-02-17 07:14:33 21.1 22 23.9
003BEBDD 2019-02-17 06:42:27 21.2 21 24
003BEBDD 2019-02-17 06:10:22 21.2 22 24.1
003BEBDD 2019-02-17 05:37:35 21.2 22 24
003BEBDD 2019-02-17 05:05:30 21.2 22 24
003BEBDD 2019-02-17 04:33:25 21.2 22 24.1
003BEBDD 2019-02-17 04:01:20 21.2 23 24.1
003BEBDD 2019-02-17 03:29:16 21.2 23 24.2
003BEBDD 2019-02-17 02:57:12 21.2 23 24.2
003BEBDD 2019-02-17 02:25:07 21.2 23 24.2
003BEBDD 2019-02-17 01:53:02 21.2 23 24.2
003BEBDD 2019-02-17 01:20:56 21.2 24 24.2
003BEBDD 2019-02-17 00:48:50 21.2 24 24.1
003BEBDD 2019-02-17 00:16:44 21.2 24 23.6
003BEBDD 2019-02-16 23:44:37 21.2 24 23.6
003BEBDD 2019-02-16 23:12:30 21.2 24 23.6
003BEBDD 2019-02-16 22:40:22 21.3 24 23.7
003BEBDD 2019-02-16 22:08:16 21.3 24 23.7
003BEBDD 2019-02-16 21:36:10 21.3 25 23.7
003BEBDD 2019-02-16 21:04:03 21.3 25 23.7
003BEBDD 2019-02-16 20:31:56 21.3 25 23.7
003BEBDD 2019-02-16 19:59:52 21.3 25 23.7
003BEBDD 2019-02-16 19:27:45 21.3 25 23.7
003BEBDD 2019-02-16 18:55:39 21.3 25 23.7
003BEBDD 2019-02-16 18:23:34 21.3 25 23.8
003BEBDD 2019-02-16 17:51:27 21.4 25 23.7
003BEBDD 2019-02-16 17:19:21 21.4 25 23.8
003BEBDD 2019-02-16 16:47:16 21.4 25 23.8
003BEBDD 2019-02-16 16:15:11 21.5 25 23.8
003BEBDD 2019-02-16 15:43:05 21.5 25 23.8
003BEBDD 2019-02-16 15:10:58 21.5 25 23.8
003BEBDD 2019-02-16 14:38:53 21.5 25 23.8
003BEBDD 2019-02-16 14:06:46 21.5 25 23.6
003BEBDD 2019-02-16 13:34:41 21.4 25 23.6
003BEBDD 2019-02-16 13:02:35 21.4 25 23.6
003BEBDD 2019-02-16 12:30:30 21.3 25 23.6
003BEBDD 2019-02-16 11:58:24 21.3 25 23.7
003BEBDD 2019-02-16 11:26:18 21.3 25 23.8
003BEBDD 2019-02-16 10:54:13 21.3 25 23.7
003BEBDD 2019-02-16 10:22:07 21.2 25 23.7
003BEBDD 2019-02-16 09:50:01 21.2 25 23.6
003BEBDD 2019-02-16 09:17:55 21.2 25 23.4
003BEBDD 2019-02-16 08:45:48 21.2 25 23.2
003BEBDD 2019-02-16 08:13:43 21.2 25 23.2
003BEBDD 2019-02-16 07:41:38 21.2 25 23.1
003BEBDD 2019-02-16 07:09:31 21.2 25 23.1
003BEBDD 2019-02-16 06:37:26 21.2 25 23
003BEBDD 2019-02-16 06:05:19 21.3 25 23
003BEBDD 2019-02-16 05:33:13 21.2 26 23
003BEBDD 2019-02-16 05:01:07 21.3 25 22.9
003BEBDD 2019-02-16 04:29:02 21.2 25 22.9
003BEBDD 2019-02-16 03:56:57 21.3 25 22.7
003BEBDD 2019-02-16 03:24:51 21.3 25 22.6
003BEBDD 2019-02-16 02:52:02 21.3 25 22.4
003BEBDD 2019-02-16 02:19:56 21.3 25 22.3
003BEBDD 2019-02-16 01:47:50 21.3 25 22.3
003BEBDD 2019-02-16 01:15:44 21.3 25 22.3
003BEBDD 2019-02-16 00:43:38 21.3 25 22.3
003BEBDD 2019-02-16 00:11:32 21.4 25 22.3
003BEBDD 2019-02-15 23:39:25 21.4 25 22
003BEBDD 2019-02-15 23:07:18 21.4 26 22
003BEBDD 2019-02-15 22:35:13 21.5 25 21.8
003BEBDD 2019-02-15 22:03:07 21.5 25 21.7
003BEBDD 2019-02-15 21:31:00 21.6 25 21.6
003BEBDD 2019-02-15 20:58:53 21.6 25 21.5
003BEBDD 2019-02-15 20:26:46 21.6 25 21.4
003BEBDD 2019-02-15 19:54:41 21.7 25 21.5
003BEBDD 2019-02-15 19:22:34 21.8 25 21.4
003BEBDD 2019-02-15 18:50:27 21.8 25 21.5
003BEBDD 2019-02-15 18:18:20 21.8 25 21.6
003BEBDD 2019-02-15 17:46:13 21.9 25 21.5
003BEBDD 2019-02-15 17:14:06 21.9 25 21.5
003BEBDD 2019-02-15 16:42:01 21.9 25 21.6
003BEBDD 2019-02-15 16:09:56 21.8 24 21.5
003BEBDD 2019-02-15 15:37:49 21.9 24 21.5
003BEBDD 2019-02-15 15:05:42 21.9 24 21.5
003BEBDD 2019-02-15 14:33:35 21.9 23 21.5
003BEBDD 2019-02-15 14:01:28 21.8 24 21.5
003BEBDD 2019-02-15 13:29:21 21.8 24 21.6
003BEBDD 2019-02-15 12:57:14 21.8 24 21.6
003BEBDD 2019-02-15 12:25:08 21.7 24 21.5
003BEBDD 2019-02-15 11:53:01 21.7 24 21.5
003BEBDD 2019-02-15 11:20:54 21.6 24 21.7
003BEBDD 2019-02-15 10:48:47 21.6 24 21.8
003BEBDD 2019-02-15 10:16:40 21.6 25 22
003BEBDD 2019-02-15 09:44:35 21.5 25 22.1
003BEBDD 2019-02-15 09:12:28 21.5 25 22
003BEBDD 2019-02-15 08:40:21 21.4 25 22
003BEBDD 2019-02-15 08:08:13 21.4 25 22.1
003BEBDD 2019-02-15 07:36:07 21.4 25 22.1
003BEBDD 2019-02-15 07:03:58 21.4 25 22.2
003BEBDD 2019-02-15 06:31:52 21.4 25 22.3
003BEBDD 2019-02-15 05:59:46 21.4 25 22.5
003BEBDD 2019-02-15 05:27:39 21.4 25 22.3
003BEBDD 2019-02-15 04:55:32 21.4 25 22.1
003BEBDD 2019-02-15 04:23:27 21.4 26 22
003BEBDD 2019-02-15 03:51:22 21.4 26 21.7
003BEBDD 2019-02-15 03:19:16 21.4 26 21.5
003BEBDD 2019-02-15 02:47:09 21.4 26 21.3
003BEBDD 2019-02-15 02:15:01 21.4 26 21.3
003BEBDD 2019-02-15 01:42:54 21.4 26 21.2
003BEBDD 2019-02-15 01:10:48 21.5 26 21
003BEBDD 2019-02-15 00:38:42 21.5 26 20.8
003BEBDD 2019-02-15 00:05:54 21.5 26 20.8
003BEBDD 2019-02-14 23:33:48 21.5 25 20.7
003BEBDD 2019-02-14 23:01:43 21.5 25 20.7
003BEBDD 2019-02-14 22:29:37 21.6 25 20.5
003BEBDD 2019-02-14 21:57:31 21.6 25 20.3
003BEBDD 2019-02-14 21:25:23 21.6 25 20
003BEBDD 2019-02-14 20:53:16 21.7 25 19.6
003BEBDD 2019-02-14 20:21:10 21.8 24 19.5
003BEBDD 2019-02-14 19:49:04 21.8 24 19.7
003BEBDD 2019-02-14 19:16:57 21.9 24 19.7
003BEBDD 2019-02-14 18:44:50 21.9 24 19.7
003BEBDD 2019-02-14 18:12:43 21.9 24 21.1
003BEBDD 2019-02-14 17:40:36 22 24 21.2
003BEBDD 2019-02-14 17:08:28 22 24 21.2
003BEBDD 2019-02-14 16:36:23 22 24 21
003BEBDD 2019-02-14 16:04:16 21.9 24 21.2
003BEBDD 2019-02-14 15:32:11 21.9 24 21.5
003BEBDD 2019-02-14 15:00:02 21.8 24 21.6
003BEBDD 2019-02-14 14:27:55 21.7 24 21.9
003BEBDD 2019-02-14 13:55:48 21.5 24 22
003BEBDD 2019-02-14 13:23:41 21.4 24 22.1
003BEBDD 2019-02-14 12:51:34 21.4 24 22.1
003BEBDD 2019-02-14 12:19:29 21.3 24 22.2
003BEBDD 2019-02-14 11:47:20 21.2 25 22.3
003BEBDD 2019-02-14 11:15:14 21.1 25 22.4
003BEBDD 2019-02-14 10:43:08 20.9 25 22.4
003BEBDD 2019-02-14 10:11:02 20.9 24 22.5
003BEBDD 2019-02-14 09:38:56 20.9 24 22.5
003BEBDD 2019-02-14 09:06:49 20.8 24 22.4
003BEBDD 2019-02-14 08:34:41 20.8 25 22.5
003BEBDD 2019-02-14 08:02:34 20.8 25 22.5
003BEBDD 2019-02-14 07:30:27 20.8 25 22.5
003BEBDD 2019-02-14 06:58:20 20.8 25 22.5
003BEBDD 2019-02-14 06:26:13 20.9 25 22.4
003BEBDD 2019-02-14 05:54:06 20.9 25 22.3
003BEBDD 2019-02-14 05:21:59 20.9 25 22.2
003BEBDD 2019-02-14 04:49:53 20.9 25 21.1
003BEBDD 2019-02-14 04:17:47 20.9 25 20.7
003BEBDD 2019-02-14 03:45:40 20.9 25 20.4
003BEBDD 2019-02-14 03:13:33 20.9 25 20.2
003BEBDD 2019-02-14 02:41:25 20.9 25 20
003BEBDD 2019-02-14 02:09:18 20.9 25 19.6
003BEBDD 2019-02-14 01:37:11 20.9 25 19.5
003BEBDD 2019-02-14 01:05:02 20.9 25 19.1
003BEBDD 2019-02-14 00:32:55 20.9 25 18.9
003BEBDD 2019-02-14 00:00:48 20.9 25 18.6
003BEBDD 2019-02-13 23:28:40 21 25 18.5
003BEBDD 2019-02-13 22:56:32 21 25 18.5
003BEBDD 2019-02-13 22:24:26 21.1 25 18.3
003BEBDD 2019-02-13 21:52:17 21.1 25 17.8
003BEBDD 2019-02-13 21:19:28 21.1 25 17.6
003BEBDD 2019-02-13 20:47:20 21.2 25 17.1
003BEBDD 2019-02-13 20:15:16 21.3 25 17.1
003BEBDD 2019-02-13 19:43:05 21.3 25 17.2
003BEBDD 2019-02-13 19:10:58 21.3 25 16.9
003BEBDD 2019-02-13 18:38:50 21.4 26 17.2
003BEBDD 2019-02-13 18:06:42 21.4 26 16.9
003BEBDD 2019-02-13 17:34:34 21.4 26 16.8
003BEBDD 2019-02-13 17:02:27 21.3 26 16.9
003BEBDD 2019-02-13 16:30:20 21.2 25 16.7
003BEBDD 2019-02-13 15:58:14 21.2 25 16.7
003BEBDD 2019-02-13 15:26:01 21.2 25 16.9
003BEBDD 2019-02-13 14:53:52 21.1 24 16.9
003BEBDD 2019-02-13 14:21:44 21.1 24 17
003BEBDD 2019-02-13 13:49:40 21.1 24 17.2
003BEBDD 2019-02-13 13:17:29 21.1 24 17.2
003BEBDD 2019-02-13 12:45:23 21.1 24 17.2
003BEBDD 2019-02-13 12:13:12 21 24 17.3
003BEBDD 2019-02-13 11:41:06 21 24 17.3
003BEBDD 2019-02-13 11:08:57 20.9 24 17.2
003BEBDD 2019-02-13 10:36:51 20.9 23 17.3
003BEBDD 2019-02-13 10:04:45 20.8 22 17.2
003BEBDD 2019-02-13 09:32:37 20.8 22 16.9
003BEBDD 2019-02-13 09:00:29 20.8 22 16.9
003BEBDD 2019-02-13 08:28:23 20.7 21 17.2
003BEBDD 2019-02-13 07:56:13 20.8 20 17.3
003BEBDD 2019-02-13 07:24:07 20.8 20 17.2
003BEBDD 2019-02-13 06:51:57 20.8 20 17
003BEBDD 2019-02-13 06:19:50 20.8 20 16.9
003BEBDD 2019-02-13 05:47:42 20.8 20 16.8
003BEBDD 2019-02-13 05:15:35 20.8 20 16.5
003BEBDD 2019-02-13 04:43:27 20.8 20 16.5
003BEBDD 2019-02-13 04:11:18 20.9 20 16.5
003BEBDD 2019-02-13 03:39:11 20.9 20 16.5
003BEBDD 2019-02-13 03:07:03 20.9 20 16.4
003BEBDD 2019-02-13 02:34:54 20.8 20 16.5
003BEBDD 2019-02-13 02:02:44 20.9 20 16.7
003BEBDD 2019-02-13 01:30:36 20.9 20 16.7
003BEBDD 2019-02-13 00:58:29 20.9 20 16.6
003BEBDD 2019-02-13 00:26:21 20.9 20 17
003BEBDD 2019-02-12 23:54:12 21 20 17.1
003BEBDD 2019-02-12 23:22:04 21 20 17.5
003BEBDD 2019-02-12 22:49:57 21 20 17.5
003BEBDD 2019-02-12 22:17:50 21.1 21 17.6
003BEBDD 2019-02-12 21:45:42 21.2 21 17.9
003BEBDD 2019-02-12 21:13:34 21.3 21 17.9
003BEBDD 2019-02-12 20:41:27 21.4 21 17.9
003BEBDD 2019-02-12 20:09:17 21.5 21 18
003BEBDD 2019-02-12 19:37:11 21.5 21 18.1
003BEBDD 2019-02-12 19:05:03 21.6 21 18.2
003BEBDD 2019-02-12 18:32:13 21.7 20 18.5
003BEBDD 2019-02-12 18:00:06 21.8 20 18.8
003BEBDD 2019-02-12 17:28:00 21.9 20 18.8
003BEBDD 2019-02-12 16:55:53 22 20 18.8
003BEBDD 2019-02-12 16:23:46 22.1 21 18.8
003BEBDD 2019-02-12 15:51:38 22.1 21 18.9
003BEBDD 2019-02-12 15:19:30 22 21 19
003BEBDD 2019-02-12 14:47:23 21.9 21 19.2
003BEBDD 2019-02-12 14:15:15 21.6 21 19.1
003BEBDD 2019-02-12 13:43:07 21.3 22 19.1
003BEBDD 2019-02-12 13:11:00 21.3 22 19
003BEBDD 2019-02-12 12:38:52 21.2 22 18.9
003BEBDD 2019-02-12 12:06:44 21.2 22 19.3
003BEBDD 2019-02-12 11:34:37 21.1 23 19.5
003BEBDD 2019-02-12 11:02:30 21.1 23 19.6
003BEBDD 2019-02-12 10:30:21 21 24 19.6
003BEBDD 2019-02-12 09:58:13 21 24 19.6
003BEBDD 2019-02-12 09:26:06 20.9 24 19.3
003BEBDD 2019-02-12 08:53:58 20.9 25 19.4
003BEBDD 2019-02-12 08:21:50 20.8 25 19.5
003BEBDD 2019-02-12 07:49:43 20.8 26 19.6
003BEBDD 2019-02-12 07:17:35 20.8 26 19.8
003BEBDD 2019-02-12 06:45:28 20.9 26 19.6
003BEBDD 2019-02-12 06:13:21 20.9 27 21.1
003BEBDD 2019-02-12 05:41:13 20.9 27 21
003BEBDD 2019-02-12 05:09:04 20.9 27 20.9
003BEBDD 2019-02-12 04:36:56 20.9 27 20.9
003BEBDD 2019-02-12 04:04:50 20.9 27 21.1
003BEBDD 2019-02-12 03:32:42 20.9 27 21.2
003BEBDD 2019-02-12 03:00:33 20.9 27 21.4
003BEBDD 2019-02-12 02:28:28 20.9 27 21.6
003BEBDD 2019-02-12 01:56:19 20.9 27 21.6
003BEBDD 2019-02-12 01:24:11 21 27 21.7
003BEBDD 2019-02-12 00:52:03 21 27 21.8
003BEBDD 2019-02-12 00:19:55 21 27 22
003BEBDD 2019-02-11 23:47:46 21.1 27 22.3
003BEBDD 2019-02-11 23:15:37 21.1 27 22.5
003BEBDD 2019-02-11 22:43:29 21.2 27 22.4
003BEBDD 2019-02-11 22:11:21 21.2 27 22.5
003BEBDD 2019-02-11 21:39:13 21.3 28 22.4
003BEBDD 2019-02-11 21:07:03 21.4 28 22.7
003BEBDD 2019-02-11 20:34:55 21.5 28 22.9
003BEBDD 2019-02-11 20:02:47 21.6 28 23.5
003BEBDD 2019-02-11 19:30:37 21.7 28 23.8
003BEBDD 2019-02-11 18:58:28 21.8 28 24
003BEBDD 2019-02-11 18:26:19 22 28 24.7
003BEBDD 2019-02-11 17:54:10 22.1 28 25.6
003BEBDD 2019-02-11 17:22:02 22.1 28 27.3
003BEBDD 2019-02-11 16:49:54 22.2 28 18.6
003BEBDD 2019-02-11 16:17:45 22.2 32 0